Location: Unspecified
(0.0000°N, 0.0000°E)
Time: 10:12:17
(UTC+00:00)

Vanguard 1 - Visible Passes

Search period start: 24 April 2018 00:00
Search period end: 04 May 2018 00:00
Orbit: 650 x 3833 km, 34.2° (Epoch: 23 April)

Date Brightness Start Highest point End Pass type
(mag) Time Alt. Az. Time Alt. Az. Time Alt. Az.
24 Apr 13.0 03:29:30 10° N 03:36:43 23° NE 03:47:34 10° E visible
24 Apr 10.7 18:13:49 10° WSW 18:24:36 78° NW 18:30:30 10° NE visible
25 Apr 12.8 03:49:23 10° NNW 03:57:42 33° NE 04:11:32 10° E visible
25 Apr 11.3 18:35:43 10° WSW 18:45:26 49° NW 18:51:03 10° NNE visible
26 Apr 12.5 04:09:35 10° NNW 04:18:36 46° NE 04:34:43 10° ESE visible
26 Apr 12.1 18:58:07 10° WSW 19:06:08 31° NW 19:11:16 10° NNE visible
27 Apr 13.0 02:15:28 10° NNE 02:18:09 12° NE 02:21:15 10° ENE visible
27 Apr 12.1 04:30:02 10° NW 04:39:32 63° NE 04:57:19 10° ESE visible
27 Apr 12.3 19:21:17 10° W 19:26:51 18° NW 19:30:57 10° N visible
28 Apr 12.7 02:35:27 15° NNE 02:39:12 19° NE 02:46:52 10° E visible
28 Apr 11.9 04:50:45 10° NW 05:00:37 83° NE 05:19:27 10° SE visible
28 Apr 12.8 19:47:02 10° NW 19:47:42 10° NW 19:48:22 10° NW visible
29 Apr 12.3 02:55:59 20° N 03:00:03 29° NE 03:10:44 10° E visible
29 Apr 11.9 05:11:42 10° WNW 05:21:55 77° SW 05:41:15 10° SE visible
30 Apr 12.0 03:16:34 27° N 03:20:49 43° NE 03:33:47 10° ESE visible
01 May 11.5 03:37:12 31° NNW 03:41:38 62° NE 03:56:14 10° ESE visible
01 May 12.6 18:21:44 10° W 18:29:51 22° NW 18:35:19 10° N visible
02 May 13.0 01:45:03 13° ENE 01:45:03 13° ENE 01:46:55 10° ENE visible
02 May 11.2 03:57:51 32° NW 04:02:38 85° NE 04:18:14 10° SE visible
02 May 13.0 18:46:16 10° WNW 18:50:45 14° NW 18:54:20 10° NNW visible
03 May 12.6 02:05:42 21° ENE 02:05:42 21° ENE 02:10:45 10° E visible
03 May 11.3 04:18:29 29° WNW 04:23:52 71° SW 04:39:54 10° SE visible
